time_stamp(utc),avg(mph),gust(mph),direction(deg),12m_air_temp(f),sonic_u(cm/s),sonic_v(cm/s),sonic_w(cm/s),pressure,2m_air_temp(f),pyranometer(W/m^2)
"2017-04-28 00:00:21+00",11.0,13.0,,58.5,-252,-419,12,1010.73,58,0
"2017-04-28 00:05:21+00",7.5,8.5,,58.3,-76,-313,-5,1010.54,58,0
"2017-04-28 00:10:21+00",11.2,14.2,,58.5,-151,-456,-12,1010.53,58.1,0
"2017-04-28 00:15:21+00",8.9,9.9,,58.5,-64,-371,-14,1010.39,58.2,0
"2017-04-28 00:20:21+00",9.2,12.2,,58.3,-53,-380,-13,1010.4,58.1,0
"2017-04-28 00:25:21+00",8.7,9.7,,58.3,9,-358,-4,1010.37,58,0
"2017-04-28 00:30:21+00",9.5,11.5,,57.9,8,-401,-15,1010.41,57.7,0
"2017-04-28 00:35:21+00",10.2,13.2,,57.9,-27,-414,-20,1010.36,57.6,0
"2017-04-28 00:40:21+00",11.0,14.0,,58.5,-100,-458,-17,1010.39,58.1,0
"2017-04-28 00:45:21+00",11.7,14.7,,58.7,-114,-485,5,1010.52,58.3,0
"2017-04-28 00:50:21+00",12.6,14.6,,58.5,-131,-523,-20,1010.49,58.1,0
"2017-04-28 00:55:21+00",10.4,14.4,,58.1,-131,-440,3,1010.65,57.9,0
"2017-04-28 01:00:21+00",14.1,17.1,,58.1,-195,-573,-9,1010.72,57.8,0
"2017-04-28 01:05:21+00",12.3,15.3,,58.1,-114,-518,-20,1010.7,57.8,0
"2017-04-28 01:10:21+00",12.1,18.1,,58,-127,-495,6,1010.88,57.7,0
"2017-04-28 01:15:21+00",12.5,17.5,,57.8,-192,-496,-3,1011.03,57.5,0
"2017-04-28 01:20:21+00",14.8,15.8,,57.8,-245,-587,-4,1011.07,57.4,0
"2017-04-28 01:25:21+00",15.5,17.5,,58,-275,-607,-15,1011.13,57.6,0
"2017-04-28 01:30:21+00",15.0,18.0,,58,-267,-592,-4,1011.17,57.6,0
"2017-04-28 01:35:21+00",16.2,20.2,,58.1,-259,-643,-21,1011.09,57.6,0
"2017-04-28 01:40:21+00",14.8,18.8,,58.1,-221,-599,-1,1011.01,57.7,0
"2017-04-28 01:45:21+00",14.4,18.4,,58.2,-169,-591,-1,1010.98,57.8,0
"2017-04-28 01:50:21+00",13.4,16.4,,58.1,-179,-552,3,1010.96,57.8,0
"2017-04-28 01:55:21+00",14.2,17.2,,58.1,-173,-582,0,1010.9,57.7,0
"2017-04-28 02:00:21+00",15.7,18.7,,57.9,-224,-643,0,1010.97,57.5,0
"2017-04-28 02:05:21+00",13.9,16.9,,57.8,-180,-577,5,1011.01,57.4,0
"2017-04-28 02:10:21+00",14.5,17.5,,57.7,-157,-609,1,1010.92,57.4,0
"2017-04-28 02:15:21+00",13.6,16.6,,57.6,-176,-564,4,1010.91,57.3,0
"2017-04-28 02:20:21+00",17.0,19.0,,57.6,-279,-674,-5,1011.1,57.1,0
"2017-04-28 02:25:21+00",16.8,18.8,,57.6,-314,-655,0,1011.07,57.1,0
"2017-04-28 02:30:21+00",16.8,18.8,,58,-360,-642,-6,1010.98,57.4,0
"2017-04-28 02:35:21+00",15.5,18.5,,58.1,-357,-587,-1,1010.99,57.5,0
"2017-04-28 02:40:21+00",16.4,19.4,,58.3,-298,-643,2,1010.79,57.7,0
"2017-04-28 02:45:21+00",14.5,16.5,,58.2,-185,-601,9,1010.73,57.6,0
"2017-04-28 02:50:21+00",13.6,15.6,,57.7,-204,-551,-3,1010.65,57.2,0
"2017-04-28 02:55:21+00",16.6,18.6,,57.3,-329,-641,-9,1010.74,57,0
"2017-04-28 03:00:21+00",14.7,16.7,,57.3,-326,-561,8,1010.86,57,0
"2017-04-28 03:05:21+00",13.5,15.5,,57.2,-319,-511,16,1010.84,56.9,0
"2017-04-28 03:10:21+00",14.5,15.5,,57.1,-407,-515,1,1010.76,56.9,0
"2017-04-28 03:15:21+00",15.2,17.2,,57.2,-326,-578,-10,1010.75,56.9,0
"2017-04-28 03:20:21+00",16.0,19.0,,57.3,-261,-636,-12,1010.68,56.9,0
"2017-04-28 03:25:21+00",15.7,19.7,,57.8,-236,-633,-3,1010.63,57.4,0
"2017-04-28 03:30:21+00",14.5,17.5,,57.7,-185,-593,1,1010.53,57.4,0
"2017-04-28 03:35:21+00",16.9,17.9,,57.6,-319,-658,-6,1010.77,57.4,0
"2017-04-28 03:40:21+00",16.7,18.7,,57.6,-279,-658,-8,1010.79,57.4,0
"2017-04-28 03:45:21+00",14.5,17.5,,57.4,-188,-587,-6,1010.73,57.2,0
"2017-04-28 03:50:21+00",14.1,19.1,,57.3,-173,-585,-3,1010.61,57.1,0
"2017-04-28 03:55:21+00",15.4,18.4,,57.4,-144,-633,-8,1010.61,57.2,0
"2017-04-28 04:00:21+00",15.0,17.0,,57.3,-151,-615,-22,1010.57,57.2,0
"2017-04-28 04:05:21+00",14.7,18.7,,57.4,-187,-600,-8,1010.67,57.2,0
"2017-04-28 04:10:21+00",12.7,15.7,,57.4,-158,-523,1,1010.61,57.2,0
"2017-04-28 04:15:21+00",13.2,17.2,,57.4,-173,-538,-6,1010.71,57.2,0
"2017-04-28 04:20:21+00",14.2,17.2,,57.4,-181,-581,-12,1010.65,57.2,0
"2017-04-28 04:25:21+00",14.0,16.0,,57.4,-155,-577,-22,1010.68,57.2,0
"2017-04-28 04:30:21+00",11.3,15.3,,57.2,-131,-477,10,1010.78,57,0
"2017-04-28 04:35:21+00",13.9,15.9,,57.4,-196,-566,-5,1010.83,57.1,0
"2017-04-28 04:40:21+00",14.4,18.4,,57.7,-255,-563,-9,1010.96,57.2,0
"2017-04-28 04:45:21+00",14.3,17.3,,57.8,-220,-572,-14,1010.93,57.2,0
"2017-04-28 04:50:21+00",13.7,16.7,,58,-243,-541,5,1011.11,57.2,0
"2017-04-28 04:55:21+00",13.7,16.7,,58.1,-232,-542,-1,1011.09,57.2,0
"2017-04-28 05:00:21+00",13.0,16.0,,58,-200,-515,-3,1011.07,57.2,0
"2017-04-28 05:05:21+00",13.3,15.3,,58,-220,-530,2,1011.1,57.2,0
"2017-04-28 05:10:21+00",13.8,17.8,,58,-188,-570,-6,1011.07,57.2,0
"2017-04-28 05:15:21+00",13.2,16.2,,58,-207,-532,-4,1011.06,57.3,0
"2017-04-28 05:20:21+00",12.9,14.9,,57.9,-206,-516,0,1011.08,57.3,0
"2017-04-28 05:25:21+00",12.8,14.8,,57.9,-169,-522,-5,1011.06,57.3,0
"2017-04-28 05:30:21+00",12.2,15.2,,57.8,-161,-504,1,1011.12,57.3,0
"2017-04-28 05:35:21+00",13.1,15.1,,57.7,-160,-537,2,1010.98,57.2,0
"2017-04-28 05:40:21+00",11.9,13.9,,57.7,-169,-479,-1,1011,57.2,0
"2017-04-28 05:45:21+00",11.0,12.0,,57.7,-121,-461,-5,1010.95,57.2,0
"2017-04-28 05:50:21+00",10.3,12.3,,57.6,-127,-422,-4,1010.83,57.2,0
"2017-04-28 05:55:21+00",9.4,13.4,,57.6,-116,-382,14,1010.72,57.2,0
"2017-04-28 06:00:21+00",11.4,13.4,,57.7,-159,-467,1,1010.97,57.3,0
"2017-04-28 06:05:21+00",11.6,12.6,,57.8,-164,-466,-2,1011.04,57.4,0
"2017-04-28 06:10:21+00",12.2,14.2,,58.2,-228,-472,-2,1010.99,57.6,0
"2017-04-28 06:15:21+00",12.2,13.2,,58.2,-245,-469,-8,1011.1,57.7,0
"2017-04-28 06:20:21+00",12.8,14.8,,58.3,-288,-485,-2,1011.18,57.7,0
"2017-04-28 06:25:21+00",14.2,17.2,,58.9,-353,-529,2,1011.02,58,0
"2017-04-28 06:30:21+00",15.5,20.5,,59.5,-475,-503,21,1010.94,58.2,0
"2017-04-28 06:35:21+00",11.0,12.0,,60.3,-234,-405,-3,1010.61,58.6,0
"2017-04-28 06:40:21+00",15.5,18.5,,60.4,-305,-580,-2,1010.81,58.7,0
"2017-04-28 06:45:21+00",12.5,14.5,,60.2,-195,-483,3,1010.78,58.7,0
"2017-04-28 06:50:21+00",8.8,9.8,,59.6,-71,-364,7,1010.64,58.4,0
"2017-04-28 06:55:21+00",8.6,11.6,,59,-78,-352,1,1010.64,58.1,0
"2017-04-28 07:00:21+00",10.2,11.2,,58.6,-130,-407,3,1010.64,57.6,0
"2017-04-28 07:05:21+00",9.6,12.6,,58.5,-121,-384,3,1010.67,57.5,0
"2017-04-28 07:10:21+00",10.8,12.8,,58.4,-124,-434,3,1010.72,57.4,0
"2017-04-28 07:15:21+00",10.4,13.4,,58.3,-128,-421,9,1010.81,57.4,0
"2017-04-28 07:20:21+00",10.3,14.3,,58.3,-125,-415,2,1010.66,57.4,0
"2017-04-28 07:25:21+00",11.4,14.4,,58.2,-110,-460,-10,1010.56,57.4,0
"2017-04-28 07:30:21+00",11.0,13.0,,58,-183,-425,10,1010.79,57.3,0
"2017-04-28 07:35:21+00",12.3,13.3,,58.2,-292,-458,3,1011.14,57.3,0
"2017-04-28 07:40:21+00",11.0,13.0,,58.2,-230,-412,7,1011.09,57.3,0
"2017-04-28 07:45:21+00",10.4,11.4,,58.1,-232,-390,-1,1011.19,57.3,0
"2017-04-28 07:50:21+00",9.6,10.6,,58.2,-224,-355,3,1011.18,57.3,0
"2017-04-28 07:55:21+00",8.6,11.6,,58.6,-255,-282,0,1011.06,57.5,0
"2017-04-28 08:00:21+00",10.7,12.7,,59,-320,-362,7,1011.21,57.8,0
"2017-04-28 08:05:21+00",11.6,14.6,,59.4,-344,-387,9,1011.22,58.1,0
"2017-04-28 08:10:21+00",11.3,14.3,,59.5,-328,-398,13,1011.24,58.2,0
"2017-04-28 08:15:21+00",14.5,16.5,,59.7,-431,-496,10,1011.31,58.3,0
"2017-04-28 08:20:21+00",13.5,15.5,,59.5,-393,-470,16,1011.28,58.3,0
"2017-04-28 08:25:21+00",14.7,16.7,,59.4,-473,-462,25,1011.38,58.3,0
"2017-04-28 08:30:21+00",15.5,19.5,,59.4,-480,-509,15,1011.46,58.3,0
"2017-04-28 08:35:21+00",14.4,17.4,,59.4,-437,-477,24,1011.55,58.3,0
"2017-04-28 08:40:21+00",14.9,19.9,,59.5,-471,-470,13,1011.5,58.4,0
"2017-04-28 08:45:21+00",15.4,17.4,,59.5,-491,-484,13,1011.6,58.4,0
"2017-04-28 08:50:21+00",14.8,16.8,,59.5,-482,-439,4,1011.58,58.4,0
"2017-04-28 08:55:21+00",13.5,17.5,,59.5,-437,-403,13,1011.62,58.5,0
"2017-04-28 09:00:21+00",14.2,16.2,,59.7,-441,-468,0,1011.75,58.5,0
"2017-04-28 09:05:21+00",13.7,16.7,,59.6,-400,-476,-2,1011.87,58.5,0
"2017-04-28 09:10:21+00",13.4,15.4,,59.7,-370,-484,1,1011.91,58.6,0
"2017-04-28 09:15:21+00",13.0,15.0,,59.9,-401,-428,5,1011.76,58.7,0
"2017-04-28 09:20:21+00",11.7,12.7,,59.8,-308,-424,7,1011.78,58.7,0
"2017-04-28 09:25:21+00",11.4,13.4,,59.7,-341,-391,1,1011.69,58.7,0
"2017-04-28 09:30:21+00",9.0,10.0,,59.5,-228,-335,5,1011.66,58.7,0
"2017-04-28 09:35:21+00",8.2,9.2,,59.4,-211,-299,7,1011.74,58.6,0
"2017-04-28 09:40:21+00",8.5,9.5,,59.4,-149,-329,2,1011.82,58.6,0
"2017-04-28 09:45:21+00",9.8,10.8,,59.5,-210,-375,-2,1011.86,58.6,0
"2017-04-28 09:50:21+00",8.3,10.3,,59.4,-126,-333,-5,1011.82,58.6,0
"2017-04-28 09:55:21+00",10.6,11.6,,58.9,-224,-404,-7,1012.12,58.3,0
"2017-04-28 10:00:21+00",12.2,13.2,,58.7,-258,-465,-11,1012.25,58.2,0
"2017-04-28 10:05:21+00",12.0,13.0,,58.7,-269,-453,-3,1012.42,58.1,0
"2017-04-28 10:10:21+00",10.7,11.7,,58.7,-234,-407,-3,1012.54,58.1,0
"2017-04-28 10:15:21+00",10.2,11.2,,58.7,-211,-386,-7,1012.64,58.1,0
"2017-04-28 10:20:21+00",8.8,9.8,,58.9,-208,-330,-5,1012.61,58.1,0
"2017-04-28 10:25:21+00",8.5,9.5,,59,-199,-316,-1,1012.71,58.3,0
"2017-04-28 10:30:21+00",7.4,8.4,,59.1,-200,-265,0,1012.7,58.3,0
"2017-04-28 10:35:21+00",8.7,10.7,,59.2,-266,-291,-4,1012.85,58.4,0
"2017-04-28 10:40:21+00",8.3,9.3,,59.4,-246,-279,-2,1012.93,58.5,0
"2017-04-28 10:45:21+00",7.8,9.8,,59.5,-245,-243,7,1013,58.7,0
"2017-04-28 10:50:21+00",6.9,7.9,,59.5,-217,-217,8,1012.99,58.8,0
"2017-04-28 10:55:21+00",8.1,9.1,,59.6,-264,-242,4,1013.03,58.9,0
"2017-04-28 11:00:21+00",8.9,10.9,,59.7,-308,-233,15,1013.12,59,0
"2017-04-28 11:05:21+00",9.1,11.1,,59.6,-311,-244,8,1013.21,58.9,0
"2017-04-28 11:10:21+00",8.2,9.2,,59.6,-263,-254,17,1013.21,59.1,56.9
"2017-04-28 11:15:21+00",8.2,9.2,,59.9,-235,-285,-1,1013.19,59.7,78.2
"2017-04-28 11:20:21+00",6.5,7.5,,60,-171,-236,7,1013.17,60,17
"2017-04-28 11:25:21+00",7.3,8.3,,60.1,-167,-274,2,1013.27,60.1,23.2
"2017-04-28 11:30:21+00",7.9,8.9,,60.3,-180,-292,2,1013.53,60.2,5.8
"2017-04-28 11:35:21+00",7.2,9.2,,60.4,-137,-278,11,1013.73,60.2,0
"2017-04-28 11:40:21+00",8.6,14.6,,60.3,-189,-318,-10,1013.94,60.1,0
"2017-04-28 11:45:21+00",7.4,9.4,,60,-82,-303,3,1013.76,59.9,22.7
"2017-04-28 11:50:21+00",5.7,7.7,,59.6,-25,-246,-11,1013.58,59.7,85.2
"2017-04-28 11:55:21+00",6.5,7.5,,59.6,-118,-248,1,1013.43,59.9,86.8
"2017-04-28 12:00:21+00",8.2,10.2,,59.9,-270,-228,18,1013.61,60.2,6.1
"2017-04-28 12:05:21+00",9.1,11.1,,59.9,-285,-293,2,1013.85,60.1,0
"2017-04-28 12:10:21+00",8.9,9.9,,59.8,-299,-242,4,1013.92,60,76.2
"2017-04-28 12:15:21+00",8.0,9.0,,60.1,-284,-195,6,1013.99,60.7,168.9
"2017-04-28 12:20:21+00",9.0,12.0,,60.9,-286,-270,6,1014.09,61.6,186.9
"2017-04-28 12:25:21+00",9.7,10.7,,61.4,-342,-257,33,1014.03,62.4,195.8
"2017-04-28 12:30:21+00",9.6,11.6,,61.7,-386,-204,-2,1014.09,63.2,211.8
"2017-04-28 12:35:21+00",9.3,10.3,,61.9,-371,-212,27,1014.08,63.9,166.8
"2017-04-28 12:40:21+00",10.0,12.0,,61.8,-374,-244,18,1014.21,64.4,242.6
"2017-04-28 12:45:21+00",11.5,13.5,,61.8,-376,-325,7,1014.29,64.5,146.1
"2017-04-28 12:50:21+00",8.2,9.2,,62,-263,-241,8,1014.36,64.7,249.6
"2017-04-28 12:55:21+00",9.3,10.3,,62.3,-311,-272,28,1014.39,64.6,253.6
"2017-04-28 13:00:21+00",11.0,13.0,,62.8,-357,-333,7,1014.4,65,254.3
"2017-04-28 13:05:21+00",10.4,12.4,,63.4,-317,-344,13,1014.39,65.1,181.9
"2017-04-28 13:10:21+00",9.9,11.9,,63.6,-308,-315,12,1014.41,65.1,269.7
"2017-04-28 13:15:21+00",10.7,11.7,,64,-342,-323,1,1014.51,65.6,256.9
"2017-04-28 13:20:21+00",9.7,10.7,,64.7,-339,-252,14,1014.43,66.4,275.8
"2017-04-28 13:25:21+00",9.8,10.8,,65.2,-318,-291,9,1014.65,67.1,276.3
"2017-04-28 13:30:21+00",9.3,10.3,,65.6,-289,-300,11,1014.78,67.7,294.5
"2017-04-28 13:35:21+00",10.6,11.6,,66.1,-263,-396,4,1014.81,68.2,307.6
"2017-04-28 13:40:21+00",10.1,12.1,,66.4,-110,-412,8,1014.83,68.2,314.3
"2017-04-28 13:45:21+00",10.9,11.9,,66.8,-164,-431,-16,1014.89,68.4,322.6
"2017-04-28 13:50:21+00",9.9,10.9,,67.1,-188,-384,-7,1014.93,68.7,330.5
"2017-04-28 13:55:21+00",10.1,11.1,,67.5,-187,-390,-9,1014.91,69.2,338.5
"2017-04-28 14:00:21+00",5.1,6.1,,67.9,-107,-191,14,1014.94,69.8,344.5
"2017-04-28 14:05:21+00",6.5,7.5,,68.2,-155,-245,19,1014.9,70.4,353.8
"2017-04-28 14:10:21+00",7.0,8.0,,68.5,-152,-265,16,1014.82,71.1,367.1
"2017-04-28 14:15:21+00",7.5,8.5,,68.5,-107,-302,-20,1014.93,70.7,371.3
"2017-04-28 14:20:21+00",7.4,9.4,,66.9,-19,-306,1,1015.08,68.6,372.9
"2017-04-28 14:25:21+00",9.3,10.3,,66.6,-102,-383,-5,1015.12,68.4,391
"2017-04-28 14:30:21+00",9.3,10.3,,67.6,-123,-377,-7,1015.13,69.3,403.3
"2017-04-28 14:35:21+00",7.2,10.2,,67.3,-18,-297,-11,1015.25,69.1,410.5
"2017-04-28 14:40:21+00",10.3,12.3,,67.3,-101,-430,-11,1015.24,69.3,418.5
"2017-04-28 14:45:21+00",9.4,12.4,,67.6,2,-383,0,1015.17,69.4,427
"2017-04-28 14:50:21+00",9.9,11.9,,66.5,-122,-404,7,1015.24,68.6,430.2
"2017-04-28 14:55:21+00",11.1,14.1,,66.2,-108,-457,18,1015.23,68.2,443.2
"2017-04-28 15:00:21+00",9.5,11.5,,66.4,-87,-395,-10,1015.29,68.3,448.3
"2017-04-28 15:05:21+00",7.6,12.6,,67.7,-66,-321,7,1015.13,69.3,458.7
"2017-04-28 15:10:21+00",8.0,11.0,,68.4,-79,-327,17,1015.2,70.1,464.2
"2017-04-28 15:15:21+00",9.9,11.9,,68.9,-91,-418,-5,1015.03,70.6,471.7
"2017-04-28 15:20:21+00",8.6,11.6,,69.6,-85,-351,28,1015.07,71.4,476.8
"2017-04-28 15:25:21+00",9.2,11.2,,70.2,-112,-375,6,1015.02,72.1,480.7
"2017-04-28 15:30:21+00",8.9,10.9,,70.6,-86,-360,19,1015.12,72.4,492
"2017-04-28 15:35:21+00",7.8,9.8,,70.9,-65,-318,10,1015.19,72.8,495.6
"2017-04-28 15:40:21+00",6.5,8.5,,71.9,-12,-265,5,1015.22,73.5,496.8
"2017-04-28 15:45:21+00",9.7,10.7,,72.2,-162,-383,3,1015.37,74.3,502.9
"2017-04-28 15:50:21+00",7.0,11.0,,73,-46,-285,2,1015.41,74.8,509.5
"2017-04-28 15:55:21+00",10.1,12.1,,73,-120,-413,-25,1015.34,74.8,510.9
"2017-04-28 16:00:21+00",7.6,9.6,,73.2,3,-314,29,1015.45,74.9,517.2
"2017-04-28 16:05:21+00",11.1,13.1,,71.1,13,-470,-19,1015.39,72.9,513.7
"2017-04-28 16:10:21+00",10.7,12.7,,70,-64,-448,-11,1015.56,71.8,514.4
"2017-04-28 16:15:21+00",10.3,13.3,,69.8,-106,-428,19,1015.62,71.8,515.5
"2017-04-28 16:20:21+00",12.6,15.6,,69.6,-114,-526,-20,1015.53,71.6,521.5
"2017-04-28 16:25:21+00",12.6,15.6,,69.7,-131,-528,-3,1015.54,71.8,524.4
"2017-04-28 16:30:21+00",9.1,12.1,,70.2,-99,-388,38,1015.51,72.2,522.1
"2017-04-28 16:35:21+00",9.3,14.3,,71.1,-118,-389,46,1015.51,72.8,523.2
"2017-04-28 16:40:21+00",11.6,15.6,,69.7,-95,-476,-15,1015.36,71.6,519.7
"2017-04-28 16:45:21+00",11.3,15.3,,70,-101,-478,8,1015.48,71.9,513.7
"2017-04-28 16:50:21+00",13.8,15.8,,69.7,-190,-563,10,1015.54,71.8,528.5
"2017-04-28 16:55:21+00",14.5,18.5,,69.4,-175,-609,7,1015.51,71.8,531.8
"2017-04-28 17:00:21+00",12.0,16.0,,69.3,-158,-506,6,1015.54,71.4,530.3
"2017-04-28 17:05:21+00",12.3,15.3,,70,-205,-494,1,1015.6,71.9,529.7
"2017-04-28 17:10:21+00",14.2,17.2,,70.6,-187,-575,-10,1015.42,72.4,531.8
"2017-04-28 17:15:21+00",11.8,14.8,,71.4,-196,-486,18,1015.34,73.3,533.9
"2017-04-28 17:20:21+00",11.6,13.6,,72.2,-209,-468,7,1015.4,74.2,527
"2017-04-28 17:25:21+00",13.0,16.0,,72.1,-212,-524,-4,1015.3,74.3,523
"2017-04-28 17:30:21+00",13.4,15.4,,73,-246,-530,5,1015.21,74.9,520.7
"2017-04-28 17:35:21+00",15.8,17.8,,73.5,-244,-630,-14,1015.17,75.4,521.6
"2017-04-28 17:40:21+00",14.9,16.9,,73.5,-246,-593,-9,1015.27,75.6,519.4
"2017-04-28 17:45:21+00",15.3,17.3,,73.5,-260,-597,-14,1015.13,75.5,520.2
"2017-04-28 17:50:21+00",12.2,15.2,,74.2,-139,-494,-4,1015.08,75.9,518.9
"2017-04-28 17:55:21+00",13.6,16.6,,74.6,-270,-525,1,1015.03,76.5,511
"2017-04-28 18:00:21+00",14.7,16.7,,74.6,-202,-601,-21,1015.14,76.6,503.2
"2017-04-28 18:05:21+00",13.0,17.0,,74.9,-183,-534,15,1015.15,76.9,500.7
"2017-04-28 18:10:21+00",12.6,16.6,,75,-166,-510,8,1015.19,77,498.4
"2017-04-28 18:15:21+00",16.0,17.0,,74.6,-294,-620,-22,1015.29,76.7,496.6
"2017-04-28 18:20:21+00",16.2,18.2,,74.7,-265,-635,-13,1015.23,76.9,491.6
"2017-04-28 18:25:21+00",14.9,16.9,,75.3,-248,-594,12,1015.14,77.1,485.7
"2017-04-28 18:30:21+00",15.1,18.1,,75.7,-288,-593,7,1015.2,77.5,482.7
"2017-04-28 18:35:21+00",15.1,17.1,,75.6,-255,-599,-2,1015.16,77.5,476.9
"2017-04-28 18:40:21+00",11.9,14.9,,75.7,-144,-489,-8,1015.2,77.5,470
"2017-04-28 18:45:21+00",12.9,14.9,,75.4,-126,-539,0,1015.25,77.2,462.1
"2017-04-28 18:50:21+00",12.8,16.8,,75.6,-114,-536,-7,1015.24,77.1,453.9
"2017-04-28 18:55:21+00",14.3,17.3,,76.1,-116,-595,-20,1015.27,77.4,450
"2017-04-28 19:00:21+00",15.0,18.0,,76.1,-180,-611,-11,1015.24,77.5,443.9
"2017-04-28 19:05:21+00",13.9,18.9,,76.6,-151,-580,12,1015.23,78,437
"2017-04-28 19:10:21+00",16.4,20.4,,76.9,-195,-675,23,1015.12,78.4,429.8
"2017-04-28 19:15:21+00",15.5,19.5,,76.3,-152,-639,-16,1015,77.9,422.5
"2017-04-28 19:20:21+00",16.6,19.6,,76.5,-199,-680,1,1015,77.9,418.5
"2017-04-28 19:25:21+00",17.1,20.1,,76.4,-243,-693,-14,1015.18,78.1,405.4
"2017-04-28 19:30:21+00",15.0,17.0,,75.8,-167,-620,-5,1015.14,77.4,402.2
"2017-04-28 19:35:21+00",13.5,17.5,,76,-139,-558,-32,1015.04,77.4,394.8
"2017-04-28 19:40:21+00",12.5,17.5,,75.5,-82,-521,-26,1015.07,77.1,379.4
"2017-04-28 19:45:21+00",12.8,18.8,,75.7,-161,-510,4,1015,77,377.9
"2017-04-28 19:50:21+00",11.6,15.6,,76.4,-150,-468,25,1015,77.8,372
"2017-04-28 19:55:21+00",16.4,19.4,,76.3,-146,-692,-31,1015.03,78,358.3
"2017-04-28 20:00:21+00",13.7,16.7,,76,-107,-574,-38,1014.96,77.3,353.7
"2017-04-28 20:05:21+00",18.3,23.3,,76.2,-205,-755,-17,1014.93,77.4,346.6
"2017-04-28 20:10:21+00",18.6,21.6,,75.3,-189,-771,-25,1015.07,77.1,336.3
"2017-04-28 20:15:21+00",15.5,19.5,,74.4,-150,-651,-13,1015.08,76.1,328.1
"2017-04-28 20:20:21+00",11.2,14.2,,74.8,-48,-475,13,1015.04,76.3,319
"2017-04-28 20:25:21+00",15.6,19.6,,74,-34,-651,-34,1014.98,75.3,312.8
"2017-04-28 20:30:21+00",11.7,16.7,,72.8,-70,-480,18,1014.93,74.1,309
"2017-04-28 20:35:21+00",18.0,21.0,,73.5,-211,-761,-19,1014.95,74.7,302.5
"2017-04-28 20:40:21+00",19.6,22.6,,73.3,-236,-802,-6,1015.06,74.6,296.5
"2017-04-28 20:45:21+00",17.1,20.1,,72.9,-184,-709,2,1015.1,74.5,283.1
"2017-04-28 20:50:21+00",14.9,17.9,,72.7,-136,-621,-28,1015.02,74.1,272.4
"2017-04-28 20:55:21+00",15.9,20.9,,72.6,-216,-653,4,1015.13,74,266.7
"2017-04-28 21:00:21+00",17.5,21.5,,72.7,-221,-718,-10,1015.09,74.1,258.9
"2017-04-28 21:05:21+00",13.9,16.9,,73.2,-212,-561,-6,1015.17,74.5,250.6
"2017-04-28 21:10:21+00",15.5,17.5,,73.4,-265,-614,-4,1015.12,74.8,242.1
"2017-04-28 21:15:21+00",16.3,20.3,,73.1,-285,-655,2,1015.19,74.7,229.6
"2017-04-28 21:20:21+00",14.4,16.4,,73,-138,-598,-28,1015.34,74.3,201.8
"2017-04-28 21:25:21+00",12.5,14.5,,73.6,-225,-497,11,1015.37,74.5,205.3
"2017-04-28 21:30:21+00",16.4,19.4,,74.4,-269,-648,-15,1015.17,75.4,205.1
"2017-04-28 21:35:21+00",13.1,18.1,,74.4,-134,-553,3,1014.97,75.5,199.9
"2017-04-28 21:40:21+00",19.1,22.1,,73.6,-273,-772,-21,1015.08,74.7,179.9
"2017-04-28 21:45:21+00",13.7,16.7,,73.1,-229,-547,-11,1015.17,74.2,175.3
"2017-04-28 21:50:21+00",14.1,17.1,,73.1,-210,-580,10,1015.07,74,147.4
"2017-04-28 21:55:21+00",14.5,18.5,,72.8,-221,-595,10,1015.16,73.8,148.3
"2017-04-28 22:00:21+00",13.8,16.8,,72.9,-289,-531,-3,1015.25,73.9,144.9
"2017-04-28 22:05:21+00",18.7,21.7,,72.8,-394,-722,-2,1015.29,73.8,135.3
"2017-04-28 22:10:21+00",18.2,20.2,,72.7,-436,-684,-8,1015.34,73.6,123.7
"2017-04-28 22:15:21+00",13.3,15.3,,71.3,-429,-417,32,1015.49,73.1,110.9
"2017-04-28 22:20:21+00",15.3,18.3,,71,-457,-519,0,1015.44,72.8,101.5
"2017-04-28 22:25:21+00",16.2,18.2,,71.1,-482,-560,14,1015.47,72.5,87.4
"2017-04-28 22:30:21+00",14.2,16.2,,70.7,-390,-519,21,1015.53,72,79.4
"2017-04-28 22:35:21+00",14.9,16.9,,70.6,-391,-547,9,1015.45,71.6,58.8
"2017-04-28 22:40:21+00",16.8,20.8,,70.2,-421,-628,-1,1015.59,71.1,49
"2017-04-28 22:45:21+00",15.8,18.8,,69.9,-389,-589,-14,1015.79,70.7,51.6
"2017-04-28 22:50:21+00",15.7,17.7,,69.7,-398,-589,4,1015.77,70.4,43.3
"2017-04-28 22:55:21+00",12.2,15.2,,69.5,-378,-399,6,1015.91,70.3,5.7
"2017-04-28 23:00:21+00",14.9,16.9,,69.4,-456,-502,14,1015.97,70,1.5
"2017-04-28 23:05:21+00",13.2,15.2,,69,-389,-456,3,1016.13,69.5,0
"2017-04-28 23:10:21+00",15.0,17.0,,68.9,-428,-539,10,1016.25,69,0
"2017-04-28 23:15:21+00",13.5,15.5,,68.8,-375,-488,-5,1016.3,68.9,3
"2017-04-28 23:20:21+00",12.5,14.5,,68.6,-344,-445,-6,1016.23,68.8,0
"2017-04-28 23:25:21+00",12.2,15.2,,68.7,-351,-433,19,1016.17,68.7,0
"2017-04-28 23:30:21+00",12.6,16.6,,68.7,-366,-451,13,1016.22,68.6,0
"2017-04-28 23:35:21+00",11.2,12.2,,68.4,-254,-424,-7,1016.19,68.3,0
"2017-04-28 23:40:21+00",11.7,12.7,,68.4,-324,-419,3,1016.32,68,0
"2017-04-28 23:45:21+00",12.1,13.1,,68.5,-369,-404,5,1016.46,67.9,0
"2017-04-28 23:50:21+00",11.7,12.7,,68.1,-345,-405,10,1016.58,67.7,0
"2017-04-28 23:55:21+00",12.5,14.5,,67.9,-371,-438,7,1016.59,67.4,0
